#timestamp,LO_Frequency,Hit,StdDev 
1509588015.5,286047002.3,N
1509588035.4,286046999.8,N
1509588055.2,286047002.1,N
1509588075.0,286047002.7,N
1509588075.9,286047002.7,N
1509588095.8,286047001.8,N
1509588115.6,286047001.6,N
1509588135.5,286047004.1,Y
1509588155.3,286047001.0,P
1509588175.1,286046999.1,P
1509588195.9,286046997.4,N
1509588215.7,286046996.6,N
1509588235.5,286046998.6,N
1509588255.4,286046998.9,N
1509588275.2,286046998.7,N
1509588295.0,286046999.4,N
1509588296.0,286046999.4,N
1509588315.8,286046998.2,N
1509588335.6,286047000.4,N
1509588355.5,286046998.4,N
1509588375.3,286047001.1,N
1509588395.1,286046998.8,N
1509588415.9,286046999.0,N
1509588435.7,286046999.4,N
1509588455.6,286046999.6,N
1509588475.4,286046996.5,N
1509588495.2,286047000.8,N
1509588515.1,286047001.2,N
1509588516.0,286047001.2,N
1509588535.8,286046998.7,N
1509588555.7,286046999.2,N
1509588575.5,286047000.0,N
1509588595.3,286047002.8,N
1509588615.2,286047002.8,N
1509588635.9,286047001.7,N
1509588655.7,286046999.7,N
1509588675.6,286047002.8,N
1509588695.4,286047002.7,N
1509588715.2,286047000.0,N
1509588735.1,286046999.8,N
1509588736.0,286046999.8,N
1509588755.8,286047002.8,N
1509588775.7,286047000.5,N
1509588795.5,286047000.5,N
1509588815.3,286047002.4,N
1509588835.2,286046999.7,N
1509588855.0,286047002.5,N
1509588855.9,286047002.5,N
1509588875.8,286047000.1,N
1509588895.6,286047002.5,N
1509588915.4,286047002.8,N
1509588935.3,286047002.5,N
1509588955.1,286047000.8,N
1509588975.9,286046998.2,N
1509588995.7,286047001.2,N
1509589015.5,286047000.3,N
1509589035.4,286047000.7,N
1509589055.2,286046998.4,N
1509589075.0,286046998.4,N
1509589075.9,286046998.4,N
1509589095.8,286046998.8,N
1509589115.6,286046997.0,N
1509589135.5,286046996.7,N
1509589155.3,286046997.2,N
1509589175.1,286046995.4,N
1509589195.9,286046997.8,N
1509589215.7,286046997.5,N
1509589235.6,286046996.8,N
1509589255.4,286046999.6,N
1509589275.2,286046999.1,N
1509589295.1,286046996.7,N
1509589296.0,286046996.7,N
1509589315.8,286046997.2,N
1509589335.7,286046999.3,N
1509589355.5,286047001.0,N
1509589375.3,286047000.5,N
1509589395.2,286046996.6,N
1509589415.0,286046995.3,N
1509589415.9,286046995.3,N
1509589435.7,286046995.6,N
1509589455.6,286046995.7,N
1509589475.4,286046995.3,N
1509589495.3,286046997.2,N
1509589515.1,286046995.0,N
1509589516.0,286046995.0,N
1509589535.8,286046997.6,N
1509589555.7,286046998.0,N
1509589575.5,286046998.0,N
1509589595.3,286046997.8,N
1509589615.2,286046997.2,N
1509589635.0,286046997.3,N
1509589635.9,286046997.3,N
1509589655.8,286046998.0,N
1509589675.6,286046996.8,N
1509589695.4,286046997.7,N
1509589715.3,286046997.7,N
1509589735.1,286046997.8,N
1509589785.9,286046993.3,E
1509589795.8,286046999.4,N
1509589815.6,286047003.6,P
1509589835.5,286047004.0,N
1509589855.3,286047003.6,N
1509589875.2,286047004.3,N
1509589895.9,286047001.3,N
1509589915.7,286047004.2,N
1509589935.6,286047001.3,N
1509589955.4,286047001.9,N
1509589975.3,286047001.4,N
1509589995.1,286047002.1,N
1509589996.0,286047002.1,N
1509590015.8,286047000.3,N
1509590035.7,286047001.6,N
1509590055.5,286047002.3,N
1509590075.4,286047002.8,N
1509590095.2,286047000.4,N
1509590115.0,286047000.4,N
1509590115.9,286047000.4,N
1509590135.8,286046998.5,N
1509590155.6,286046998.5,N
1509590175.4,286046999.4,N
1509590195.3,286046998.4,N
1509590215.1,286046998.7,N
1509590235.9,286046998.3,N
1509590255.7,286046998.5,N
1509590275.5,286046999.9,N
1509590295.4,286046998.1,N
1509590315.2,286046998.2,N
1509590335.0,286046999.3,N
1509590336.0,286046999.3,N
1509590355.8,286046999.5,N
1509590375.6,286046999.2,N
1509590395.5,286046996.7,N
1509590415.3,286046999.5,N
1509590435.1,286046996.9,N
1509590455.9,286046998.3,N
1509590475.7,286046998.2,N
1509590495.5,286046999.3,N
1509590515.4,286046998.9,N
1509590535.2,286046996.9,N
1509590555.1,286046998.8,N
1509590556.0,286046998.8,N
1509590575.8,286046999.5,N
1509590595.6,286046998.7,N
1509590615.5,286046997.2,N
1509590635.3,286046999.5,N
1509590655.1,286046997.0,Y
1509590675.9,286046998.8,P
1509590695.7,286046996.5,P
1509590715.6,286046999.2,N
1509590735.4,286046999.5,N
1509590755.2,286047001.2,N
1509590775.1,286047001.2,N
1509590776.0,286047001.2,N
1509590795.8,286046999.4,N
1509590815.7,286046997.0,N
1509590835.5,286046997.5,N
1509590855.3,286046996.6,N
1509590875.2,286046997.1,N
1509590895.0,286046997.1,N
1509590895.9,286046997.1,N
1509590915.7,286046998.0,N
1509590935.6,286046996.0,N
1509590955.4,286046996.2,N
1509590975.3,286046996.0,N
1509590995.1,286046995.8,N
1509590996.0,286046995.8,N
1509591015.8,286046996.0,N
1509591035.7,286046995.7,N
1509591055.5,286046995.4,N
1509591075.4,286046997.4,N
1509591095.2,286046996.8,N
1509591115.0,286046999.0,N
1509591115.9,286046999.0,N
1509591135.8,286047001.0,N
1509591155.6,286046999.3,N
1509591175.4,286047000.8,N
1509591195.3,286046998.6,N
1509591215.1,286046999.4,N
1509591235.9,286046996.9,N
1509591255.7,286046996.7,N
1509591275.5,286046999.1,N
1509591295.4,286046998.5,N
1509591315.2,286047001.1,N
1509591335.1,286047001.1,N
1509591336.0,286047001.1,N
1509591355.8,286047000.2,N
1509591375.6,286047000.3,N
1509591395.5,286047000.7,N
1509591415.3,286047000.3,N
1509591435.1,286047001.1,N
1509591455.9,286047000.3,N
1509591475.7,286047001.2,N
1509591495.6,286046998.1,N
1509591515.4,286047000.7,N
1509591535.2,286046999.7,N
1509591555.1,286047002.2,N
1509591556.0,286047002.2,N
1509591575.8,286047002.3,N
1509591595.6,286047001.4,N
